Flag for Turkmenistan Weather past 2 weeks in Ashgabat, Turkmenistan

Now
75 °F

Sunny.


Feels Like: 77 °F
Forecast: 63 / 82 °F
Wind: 3 mph from East

Location: Ashgabat

Current Time: Sep 18, 2014 at 11:00:45 AM

Latest Report: Sep 18, 2014 at 10:00 AM


Visibility: 2 mi

Pressure: 30.09 "Hg

Humidity: 27%

Dew point: 39 °F

Location of AshgabatLocation

Historic Weather in Ashgabat — Graph

°F

Ashgabat temperature yesterday

Maximum temperature yesterday: 93 °F (at 2:00 PM)
Minimum temperature yesterday: 75 °F (at 3:00 AM)
Average temperature yesterday: 84 °F

Past Weeks' High & Low Weather Summary

 TemperatureHumidityPressure
High97 °F (Sep 3, 3:00 PM)57% (Sep 15, 5:00 AM)30.09 "Hg (Sep 15, 5:00 AM)
Low63 °F (Sep 12, 6:00 AM)6% (Sep 10, 2:00 PM)29.65 "Hg (Sep 5, 4:00 PM)
Average80 °F22%29.86 "Hg
* Reported Sep 3 10:00 AM — Sep 18 10:00 AM, Ashgabat, Weather by CustomWeather, © 2014

Note: Actual official high and low records may vary slightly from our data, if they occured in-between our weather recording intervals... More about our weather records

Advertising

Ashgabat weather history for previous 24 hours

 ConditionsComfort  
Time TempWeatherWind HumidityBarometerVisibility
10:00 AM
Sep 18
75 °FSunny.3 mph27%30.09 "Hg2 mi
9:00 AM73 °FHaze.3 mph29%30.09 "Hg3 mi
8:00 AM70 °FSunny.3 mph35%30.07 "Hg3 mi
7:00 AM72 °FPassing clouds.6 mph31%30.04 "Hg3 mi
6:00 AM72 °FPassing clouds.6 mph31%30.01 "Hg3 mi
5:00 AM72 °FPassing clouds.3 mph31%30.01 "Hg3 mi
4:00 AM73 °FPassing clouds.3 mph29%30.01 "Hg2 mi
3:00 AM73 °FOvercast.6 mph29%29.98 "Hg2 mi
2:00 AM75 °FOvercast.13 mph25%29.98 "Hg2 mi
1:00 AM79 °FOvercast.17 mph23%29.95 "Hg4 mi
12:00 AM81 °FPassing clouds.15 mph28%29.92 "HgN/A
11:00 PM
Sep 17
82 °FPassing clouds.8 mph26%29.89 "HgN/A
10:00 PM82 °FPartly cloudy.8 mph28%29.89 "HgN/A
9:00 PM84 °FPassing clouds.10 mph27%29.86 "HgN/A
8:00 PM88 °FMostly cloudy.8 mph25%29.83 "HgN/A
7:00 PM90 °FMostly cloudy.15 mph24%29.80 "HgN/A
6:00 PM91 °FMostly cloudy.10 mph26%29.77 "HgN/A
5:00 PM93 °FScattered clouds.10 mph26%29.74 "HgN/A
4:00 PM93 °FScattered clouds.10 mph26%29.74 "HgN/A
3:00 PM93 °FPassing clouds.6 mph26%29.74 "HgN/A
2:00 PM93 °FPassing clouds.10 mph26%29.74 "HgN/A
1:00 PM91 °FSunny.10 mph30%29.77 "HgN/A
12:00 PM90 °FPassing clouds.10 mph29%29.77 "HgN/A
11:00 AM86 °FPassing clouds.10 mph33%29.77 "HgN/A
Weather by CustomWeather, © 2014

See weather overviewHow to use our weather pages